Regional Weather Roundup
Issued by NWS Northern Indiana

Current Version | Previous Version | Text Only | Print | Product List | Glossary On
Versions: 1 2 3 4 5 6 7 8 9 10 11 12 13 14 15 16 17 18 19 20 21 22 23 24 25 26 27 28 29 30 31 32 33 34 35 36 37 38 39 40 41 42 43 44 45 46 47 48 49 50
000
ASUS43 KIWX 291910
RWRIWX

KIWX WEATHER ROUNDUP
NATIONAL WEATHER SERVICE NORTHERN INDIANA
300 PM EDT SAT APR 29 2017

NOTE: "FAIR" INDICATES FEW OR NO CLOUDS BELOW 12,000 FEET WITH NO
SIGNIFICANT WEATHER AND/OR OBSTRUCTIONS TO VISIBILITY.

* THESE STATIONS ARE NOT UNDER NWS QUALITY CONTROL. THEY ALSO MAY NOT
  REPORT WEATHER SUCH AS PRECIPITATION OR FOG.

INZ001>027-292000-
NORTHERN INDIANA

CITY           SKY/WX    TMP DP  RH WIND       PRES   REMARKS
GARY*          LGT RAIN  43  39  87 N17G35    30.11F
VALPARAISO     LGT RAIN  48  47  96 NE9G18    30.09F FOG
MICHIGAN CITY* MIX PCPN  45  45 100 N15       30.10F
LAPORTE*       LGT RAIN  52  48  88 NE14      30.08F
KNOX*          CLOUDY    50  37  62 E13       30.09F
SOUTH BEND     CLOUDY    52  46  80 NE15G21   30.12F
ELKHART*       PTSUNNY   54  46  76 NE16      30.09F
GOSHEN         LGT RAIN  52  45  77 E15G28    30.10F
MONTICELLO*    CLOUDY    53  52  95 NE8G16    30.06F
LOGANSPORT*    CLOUDY    54  52  94 NE8G20    30.07F
ROCHESTER*     CLOUDY    54  50  87 E13       30.11S
WARSAW*        LGT RAIN  50  46  87 E13       30.11F
ANGOLA*        CLOUDY    48  39  71 E9        30.15S
FORT WAYNE     CLOUDY    51  48  89 E15       30.13F
HUNTINGTON*    CLOUDY   N/A N/A N/A E14G20    30.10F
PERU/GRISSOM   CLOUDY    56  56 100 E17       30.05F
MARION*        CLOUDY    54  54 100 NE16      30.07F

$$
INZ028>050-292000-
CENTRAL INDIANA

CITY           SKY/WX    TMP DP  RH WIND       PRES   REMARKS
LAFAYETTE      CLOUDY    56  55  97 NE12      30.04F
KOKOMO*        CLOUDY    56  54  93 NE20G25   30.06F
MUNCIE*        CLOUDY    64  60  87 NE9       30.07R
INDIANAPOLIS   CLOUDY    71  63  75 SE9       30.01F

$$
MIZ043>046-050>051-056>058-064>065-071>073-077>080-292000-
SOUTHWEST LOWER MICHIGAN

CITY           SKY/WX    TMP DP  RH WIND       PRES   REMARKS
BATTLE CREEK   CLOUDY    51  43  74 NE9       30.19F
BENTON HARBOR  RAIN      52  45  77 NE6       30.15F
COLDWATER*     CLOUDY    50  46  85 NE8G16    30.16F
HILLSDALE*     LGT RAIN  46  43  87 NE10      30.15F
HOLLAND        CLOUDY    54  37  52 E10       30.20S
GRAND RAPIDS   CLOUDY    54  38  54 E13       30.21S
KALAMAZOO      LGT RAIN  52  41  66 E7        30.19S
STURGIS*       CLOUDY    50  44  81 NE10G20   30.15S
THREE RIVERS*  CLOUDY    52  44  73 NE12      30.16F

$$
OHZ001>008-015>018-024>025-292000-
NORTHWEST OHIO

CITY           SKY/WX    TMP DP  RH WIND       PRES   REMARKS
WAUSEON*       LGT RAIN  46  45  93 NE16      30.15F
DEFIANCE       CLOUDY    46  44  93 E13       30.17R
FINDLAY        LGT RAIN  49  44  83 NE12G22   30.15S
TOLEDO EXPRESS LGT RAIN  44  43  96 NE14G21   30.19S
TOLEDO METCALF CLOUDY    46  43  89 NE8G18    30.21R
LIMA           CLOUDY    49  48  97 NE15G21   30.12R

$$
AND FOR LAKE MICHIGAN COASTAL AND OPEN LAKE BUOY OBSERVATIONS

STATION/POSITION TEMP    WIND        PRES    VSBY  WAVE
                 AIR SEA DIR/SP/G                  HT/PER
                 (F)     (DEG/KT/KT) (MB)    (MI)  (FT/S)
CALUMET HARBOR    41     350/ 17/ 25 1020.1F
MICHIGAN CITY     42      10/ 23/ 24   N/A
BURNS HARBOR      43      20/ 27     1019.3F
SOUTH LAKE BUOY   40 41   10/ 19/ 23 1023.7          5/ 6
4 MI NW BRIDGMAN  44 48   40/ 17/ 21 1021.9          4/ 6
MICHIGAN CITY     42 47                N/A           6/ 5

$$
&&




USA.gov is the U.S. government's official web portal to all federal, state and local government web resources and services.